WX4MMM Weather Reports


Display with metric or nautical units.
time (UTC)temp
F
wind
direction
speed
MPH
gust
MPH
rain 1hr
in
rain 24hr
in
rain mn
in
humidity
%
barometer
mb
20260904015503 82 297 0.0 1.0 0.00 0.00 0.00 81 1016.3
20260904015003 83 272 0.0 1.0 0.00 0.00 0.00 80 1016.3
20260904014503 83 158 0.0 0.0 0.00 0.00 0.00 80 1016.3
20260904013503 83 272 0.0 0.0 0.00 0.00 0.00 79 1016.2
20260904013003 83 303 0.0 1.0 0.00 0.00 0.00 79 1016.1
20260904012503 84 256 0.0 1.0 0.00 0.00 0.00 78 1016.0
20260904012003 84 251 0.0 1.0 0.00 0.00 0.00 78 1016.0
20260904011003 84 253 0.0 1.0 0.00 0.00 0.00 77 1015.7
20260904010505 84 230 0.0 1.0 0.00 0.00 0.00 76 1015.6
20260904010003 84 268 0.0 0.0 0.00 0.00 0.00 76 1015.6
20260904005502 85 268 0.0 0.0 0.00 0.00 0.00 75 1015.5
20260904005003 85 239 0.0 2.0 0.00 0.00 0.00 75 1015.5
20260904004004 85 312 0.0 1.0 0.00 0.00 0.00 75 1015.2
20260904003503 85 327 0.0 1.0 0.00 0.00 0.00 74 1015.2
20260904002004 85 280 0.0 1.0 0.00 0.00 0.00 73 1014.9
20260904001505 85 218 0.0 1.0 0.00 0.00 0.00 74 1014.8
20260904000503 85 336 0.0 1.0 0.00 0.00 0.00 72 1014.8
20260903235503 86 233 0.0 1.0 0.00 0.00 0.00 71 1014.7
20260903235004 86 314 0.0 1.0 0.00 0.00 0.00 70 1014.5
20260903234503 87 121 0.0 1.0 0.00 0.00 0.00 70 1014.5
20260903234004 87 266 0.0 1.0 0.00 0.00 0.00 68 1014.5
20260903233503 87 155 0.0 1.0 0.00 0.00 0.00 68 1014.4
20260903233004 88 345 0.0 1.0 0.00 0.00 0.00 66 1014.4
20260903232003 89 319 0.0 1.0 0.00 0.00 0.00 64 1014.4
20260903231503 89 225 0.0 1.0 0.00 0.00 0.00 62 1014.5
20260903231005 89 358 0.0 1.0 0.00 0.00 0.00 61 1014.5
20260903230504 90 266 1.0 3.0 0.00 0.00 0.00 60 1014.5
20260903230003 90 16 1.0 2.0 0.00 0.00 0.00 59 1014.5
20260903225503 90 240 1.0 2.0 0.00 0.00 0.00 60 1014.6
20260903225004 90 152 1.0 3.0 0.00 0.00 0.00 60 1014.5
20260903224504 91 157 1.0 5.0 0.00 0.00 0.00 57 1014.5
20260903224004 91 152 1.0 5.0 0.00 0.00 0.00 58 1014.6
20260903223503 92 223 1.0 2.0 0.00 0.00 0.00 58 1014.5
20260903223003 93 288 1.0 5.0 0.00 0.00 0.00 57 1014.5
20260903222505 94 254 1.0 3.0 0.00 0.00 0.00 56 1014.6
20260903222004 94 216 0.0 2.0 0.00 0.00 0.00 56 1014.5
20260903221503 94 248 0.0 2.0 0.00 0.00 0.00 56 1014.4
20260903221005 94 232 1.0 3.0 0.00 0.00 0.00 55 1014.3
20260903220503 94 329 1.0 2.0 0.00 0.00 0.00 55 1014.3
20260903220003 94 306 1.0 3.0 0.00 0.00 0.00 54 1014.3
20260903215503 95 265 0.0 2.0 0.00 0.00 0.00 57 1014.4
20260903215004 95 316 0.0 1.0 0.00 0.00 0.00 57 1014.5
20260903214503 95 150 0.0 1.0 0.00 0.00 0.00 55 1014.5
20260903214003 96 258 0.0 1.0 0.00 0.00 0.00 55 1014.5
20260903213505 96 48 0.0 1.0 0.00 0.00 0.00 53 1014.5
20260903213003 96 241 0.0 2.0 0.00 0.00 0.00 51 1014.5
20260903212503 96 195 0.0 2.0 0.00 0.00 0.00 52 1014.5
20260903212003 96 313 0.0 1.0 0.00 0.00 0.00 53 1014.4
20260903211003 96 288 0.0 2.0 0.00 0.00 0.00 53 1014.5
20260903210503 96 246 1.0 2.0 0.00 0.00 0.00 52 1014.5
20260903210002 96 332 0.0 1.0 0.00 0.00 0.00 52 1014.4
20260903205003 96 125 1.0 3.0 0.00 0.00 0.00 53 1014.6
20260903204502 96 254 1.0 3.0 0.00 0.00 0.00 50 1014.6
20260903204003 96 355 1.0 2.0 0.00 0.00 0.00 52 1014.6
20260903203503 96 125 0.0 1.0 0.00 0.00 0.00 52 1014.6
20260903203003 96 188 0.0 2.0 0.00 0.00 0.00 52 1014.7
20260903202503 97 188 0.0 1.0 0.00 0.00 0.00 52 1014.7
20260903202003 98 329 0.0 1.0 0.00 0.00 0.00 50 1014.8
20260903201503 98 343 0.0 2.0 0.00 0.00 0.00 48 1014.8
20260903201003 98 191 0.0 2.0 0.00 0.00 0.00 48 1014.8
20260903200503 98 232 0.0 1.0 0.00 0.00 0.00 48 1014.9
20260903200004 98 284 0.0 2.0 0.00 0.00 0.00 48 1014.9
20260903195503 98 330 0.0 1.0 0.00 0.00 0.00 48 1015.0
20260903195003 98 358 1.0 2.0 0.00 0.00 0.00 48 1015.0
20260903194503 99 181 1.0 3.0 0.00 0.00 0.00 47 1014.9
20260903193504 98 332 1.0 2.0 0.00 0.00 0.00 46 1015.1
20260903193004 98 167 1.0 3.0 0.00 0.00 0.00 47 1015.1
20260903192503 98 193 1.0 3.0 0.00 0.00 0.00 46 1015.2
20260903192003 98 13 2.0 3.0 0.00 0.00 0.00 47 1015.2
20260903191503 98 345 1.0 2.0 0.00 0.00 0.00 46 1015.3
20260903191003 99 180 1.0 2.0 0.00 0.00 0.00 46 1015.3
20260903190003 99 293 1.0 3.0 0.00 0.00 0.00 46 1015.4
20260903185503 99 349 0.0 2.0 0.00 0.00 0.00 45 1015.4
20260903185005 99 196 1.0 2.0 0.00 0.00 0.00 46 1015.5
20260903184503 99 275 1.0 2.0 0.00 0.00 0.00 45 1015.5
20260903184003 99 263 0.0 3.0 0.00 0.00 0.00 46 1015.6
20260903183504 99 167 0.0 3.0 0.00 0.00 0.00 45 1015.7
20260903183003 99 277 1.0 2.0 0.00 0.00 0.00 43 1015.7
20260903182503 99 163 1.0 3.0 0.00 0.00 0.00 44 1015.7
20260903182004 99 228 1.0 3.0 0.00 0.00 0.00 45 1015.8
20260903180503 99 130 0.0 2.0 0.00 0.00 0.00 46 1015.9
20260903180003 98 66 2.0 2.0 0.00 0.00 0.00 47 1015.9
20260903175003 98 56 1.0 3.0 0.00 0.00 0.00 48 1016.0
20260903174003 98 318 1.0 2.0 0.00 0.00 0.00 46 1016.1
20260903173503 98 255 0.0 1.0 0.00 0.00 0.00 46 1016.1
20260903173003 98 183 0.0 2.0 0.00 0.00 0.00 47 1016.1
20260903172503 97 329 1.0 2.0 0.00 0.00 0.00 48 1016.2
20260903172005 98 126 1.0 3.0 0.00 0.00 0.00 50 1016.3
20260903171003 97 310 0.0 2.0 0.00 0.00 0.00 53 1016.4
20260903170503 97 314 1.0 3.0 0.00 0.00 0.00 51 1016.4
20260903170003 97 198 0.0 2.0 0.00 0.00 0.00 50 1016.5
20260903165503 97 176 1.0 2.0 0.00 0.00 0.00 54 1016.6
20260903165004 97 118 1.0 2.0 0.00 0.00 0.00 50 1016.7
20260903164503 96 186 0.0 2.0 0.00 0.00 0.00 53 1016.8
20260903164004 96 143 0.0 2.0 0.00 0.00 0.00 51 1016.7
20260903163503 95 323 0.0 1.0 0.00 0.00 0.00 53 1016.8
20260903163004 94 19 1.0 2.0 0.00 0.00 0.00 54 1016.8
20260903162503 95 137 2.0 3.0 0.00 0.00 0.00 54 1016.8
20260903161504 96 327 1.0 2.0 0.00 0.00 0.00 53 1017.0
20260903161005 95 38 1.0 2.0 0.00 0.00 0.00 52 1017.0
20260903160503 95 43 0.0 1.0 0.00 0.00 0.00 57 1017.0
20260903160003 95 3 2.0 3.0 0.00 0.00 0.00 56 1017.0
20260903155003 95 334 1.0 1.0 0.00 0.00 0.00 57 1017.1
20260903154504 94 340 1.0 2.0 0.00 0.00 0.00 60 1017.2
20260903154004 93 341 1.0 2.0 0.00 0.00 0.00 58 1017.2
20260903153503 93 345 1.0 2.0 0.00 0.00 0.00 60 1017.2
20260903153004 93 305 1.0 2.0 0.00 0.00 0.00 63 1017.2
20260903152503 92 358 1.0 2.0 0.00 0.00 0.00 61 1017.2
20260903152004 92 13 0.0 2.0 0.00 0.00 0.00 63 1017.2
20260903151504 91 236 0.0 2.0 0.00 0.00 0.00 62 1017.2
20260903151004 91 326 1.0 2.0 0.00 0.00 0.00 66 1017.3
20260903150503 91 157 1.0 3.0 0.00 0.00 0.00 64 1017.3
20260903150003 91 26 2.0 2.0 0.00 0.00 0.00 64 1017.3
20260903145503 91 355 1.0 3.0 0.00 0.00 0.00 66 1017.4
20260903145003 90 289 0.0 2.0 0.00 0.00 0.00 64 1017.4
20260903144503 89 48 0.0 1.0 0.00 0.00 0.00 69 1017.4
20260903144003 89 125 1.0 3.0 0.00 0.00 0.00 68 1017.4
20260903143503 89 110 1.0 2.0 0.00 0.00 0.00 69 1017.4
20260903143005 88 97 1.0 2.0 0.00 0.00 0.00 68 1017.3
20260903142503 88 357 1.0 2.0 0.00 0.00 0.00 72 1017.3
20260903142005 87 100 0.0 2.0 0.00 0.00 0.00 72 1017.2
20260903141003 86 324 1.0 2.0 0.00 0.00 0.00 74 1017.2
20260903140503 85 351 1.0 2.0 0.00 0.00 0.00 77 1017.3
20260903140004 85 146 1.0 2.0 0.00 0.00 0.00 77 1017.3
20260903135503 84 24 1.0 2.0 0.00 0.00 0.00 78 1017.3
20260903135005 83 101 1.0 2.0 0.00 0.00 0.00 80 1017.3
20260903134504 83 17 2.0 3.0 0.00 0.00 0.00 82 1017.4
20260903133503 82 101 1.0 2.0 0.00 0.00 0.00 83 1017.3
20260903133003 82 123 1.0 3.0 0.00 0.00 0.00 84 1017.3
20260903132503 81 356 1.0 3.0 0.00 0.00 0.00 86 1017.3
20260903132004 81 319 1.0 2.0 0.00 0.00 0.00 87 1017.2
20260903131504 80 14 1.0 2.0 0.00 0.00 0.00 88 1017.3
20260903131003 79 17 0.0 2.0 0.00 0.00 0.00 90 1017.4
20260903130503 79 176 0.0 1.0 0.00 0.00 0.00 91 1017.4
20260903130003 79 340 0.0 1.0 0.00 0.00 0.00 92 1017.3
20260903125503 78 205 1.0 1.0 0.00 0.00 0.00 93 1017.4
20260903125004 77 34 0.0 1.0 0.00 0.00 0.00 95 1017.5
20260903124503 76 116 0.0 1.0 0.00 0.00 0.00 97 1017.4
20260903123504 75 69 0.0 0.0 0.00 0.00 0.00 98 1017.4
20260903123004 75 204 0.0 0.0 0.00 0.00 0.00 99 1017.4
20260903122504 74 214 0.0 0.0 0.00 0.00 0.00 99 1017.3
20260903122003 74 214 0.0 1.0 0.00 0.00 0.00 99 1017.3
20260903121503 73 302 0.0 0.0 0.00 0.00 0.00 99 1017.3
20260903121003 73 302 0.0 0.0 0.00 0.00 0.00 99 1017.3
20260903120003 72 158 0.0 0.0 0.00 0.00 0.00 99 1017.4
20260903115504 72 24 0.0 1.0 0.00 0.00 0.00 99 1017.4
20260903115004 72 30 0.0 1.0 0.00 0.00 0.00 99 1017.4
20260903114504 72 87 0.0 0.0 0.00 0.00 0.00 99 1017.4
20260903114005 72 98 0.0 0.0 0.00 0.00 0.00 99 1017.3
20260903113504 72 99 0.0 0.0 0.00 0.00 0.00 99 1017.3
20260903113005 72 194 0.0 1.0 0.00 0.00 0.00 98 1017.3
20260903112003 72 352 0.0 0.0 0.00 0.00 0.00 99 1017.2
20260903111505 72 352 0.0 1.0 0.00 0.00 0.00 98 1017.2
20260903111003 71 88 0.0 0.0 0.00 0.00 0.00 98 1017.1
20260903110503 72 90 0.0 0.0 0.00 0.00 0.00 98 1017.0
20260903110005 72 90 0.0 0.0 0.00 0.00 0.00 98 1017.0
20260903105503 72 90 0.0 1.0 0.00 0.00 0.00 98 1017.0
20260903105003 72 181 0.0 0.0 0.00 0.00 0.00 98 1017.0
20260903104005 72 164 0.0 0.0 0.00 0.00 0.00 98 1016.9
20260903103503 72 164 0.0 0.0 0.00 0.00 0.00 98 1016.9
20260903103003 72 164 0.0 1.0 0.00 0.00 0.00 98 1016.8
20260903102504 72 233 0.0 0.0 0.00 0.00 0.00 98 1016.8
20260903102003 72 233 0.0 0.0 0.00 0.00 0.00 98 1016.7
20260903101504 72 233 0.0 0.0 0.00 0.00 0.00 98 1016.7
20260903101004 72 233 0.0 0.0 0.00 0.00 0.00 98 1016.7
20260903100505 72 325 0.0 0.0 0.00 0.00 0.00 98 1016.7
20260903100004 72 332 0.0 1.0 0.00 0.00 0.00 98 1016.7
20260903095504 72 344 0.0 0.0 0.00 0.00 0.00 98 1016.6
20260903095003 72 344 0.0 0.0 0.00 0.00 0.00 98 1016.6
20260903094504 72 344 0.0 0.0 0.00 0.00 0.00 98 1016.5
20260903094004 72 344 0.0 1.0 0.00 0.00 0.00 98 1016.5
20260903093503 72 129 0.0 0.0 0.00 0.00 0.00 98 1016.6
20260903093005 72 129 0.0 1.0 0.00 0.00 0.00 98 1016.5
20260903092503 72 181 0.0 0.0 0.00 0.00 0.00 98 1016.5
20260903092003 72 180 0.0 0.0 0.00 0.00 0.00 97 1016.5
20260903091503 72 224 0.0 0.0 0.00 0.00 0.00 97 1016.4
20260903091003 72 224 0.0 0.0 0.00 0.00 0.00 97 1016.5
20260903090003 73 302 0.0 1.0 0.00 0.00 0.00 97 1016.5
20260903085503 73 356 0.0 0.0 0.00 0.00 0.00 97 1016.5
20260903085003 73 114 0.0 1.0 0.00 0.00 0.00 97 1016.5
20260903083502 73 196 0.0 0.0 0.00 0.00 0.00 97 1016.4
20260903083004 73 196 0.0 0.0 0.00 0.00 0.00 97 1016.3
20260903082505 73 196 0.0 1.0 0.00 0.00 0.00 97 1016.4
20260903082003 73 189 0.0 1.0 0.00 0.00 0.00 96 1016.4
20260903081503 73 83 0.0 1.0 0.00 0.00 0.00 96 1016.3
20260903081004 73 74 0.0 0.0 0.00 0.00 0.00 96 1016.3
20260903080503 73 74 0.0 0.0 0.00 0.00 0.00 96 1016.2
20260903080003 73 327 0.0 1.0 0.00 0.00 0.00 96 1016.2
20260903075503 73 328 1.0 1.0 0.00 0.00 0.00 96 1016.2
20260903075004 73 60 0.0 0.0 0.00 0.00 0.00 96 1016.1
20260903074503 73 60 0.0 0.0 0.00 0.00 0.00 96 1016.1
20260903074004 73 60 0.0 0.0 0.00 0.00 0.00 96 1016.1
20260903073003 73 21 0.0 0.0 0.00 0.00 0.00 96 1016.1
20260903072505 73 21 0.0 0.0 0.00 0.00 0.00 96 1016.1
20260903072003 74 21 0.0 1.0 0.00 0.00 0.00 96 1016.1
20260903071003 74 87 0.0 0.0 0.00 0.00 0.00 95 1016.1
20260903070004 74 87 0.0 0.0 0.00 0.00 0.00 95 1016.3
20260903065503 74 79 0.0 0.0 0.00 0.00 0.00 95 1016.2
20260903065003 74 324 0.0 1.0 0.00 0.00 0.00 95 1016.1
20260903064503 74 0 0.0 0.0 0.00 0.00 0.00 95 1016.1
20260903064004 74 355 0.0 1.0 0.00 0.00 0.00 95 1016.1
20260903063504 74 70 0.0 0.0 0.00 0.00 0.00 95 1016.2
20260903063003 74 326 0.0 0.0 0.00 0.00 0.00 95 1016.2
20260903062503 74 326 0.0 0.0 0.00 0.00 0.00 94 1016.1
20260903062003 74 326 0.0 1.0 0.00 0.00 0.00 94 1016.2
20260903061503 74 292 0.0 0.0 0.00 0.00 0.00 94 1016.2
20260903061004 74 269 0.0 0.0 0.00 0.00 0.00 94 1016.3
20260903060503 74 255 0.0 0.0 0.00 0.00 0.00 94 1016.3
20260903060004 74 255 0.0 0.0 0.00 0.00 0.00 93 1016.4
20260903055503 74 255 0.0 1.0 0.00 0.00 0.00 93 1016.4
20260903055003 74 113 0.0 0.0 0.00 0.00 0.00 93 1016.5
20260903054504 75 113 0.0 0.0 0.00 0.00 0.00 93 1016.5
20260903054003 75 113 0.0 0.0 0.00 0.00 0.00 93 1016.5
20260903053504 75 113 0.0 0.0 0.00 0.00 0.00 93 1016.5
20260903053004 75 113 0.0 0.0 0.00 0.00 0.00 92 1016.6
20260903052503 75 113 0.0 0.0 0.00 0.00 0.00 92 1016.6
20260903052004 75 113 0.0 0.0 0.00 0.00 0.00 92 1016.6
20260903051503 75 113 0.0 0.0 0.00 0.00 0.00 92 1016.6
20260903051003 75 158 0.0 0.0 0.00 0.00 0.00 92 1016.6
20260903050503 75 177 0.0 0.0 0.00 0.00 0.00 92 1016.6
20260903045504 76 177 0.0 1.0 0.00 0.00 0.00 91 1016.6
20260903045003 76 206 0.0 1.0 0.00 0.00 0.00 90 1016.6
20260903044503 76 327 0.0 1.0 0.00 0.00 0.00 90 1016.5
20260903044005 76 34 0.0 0.0 0.00 0.00 0.00 90 1016.5
20260903043503 76 17 0.0 0.0 0.00 0.00 0.00 90 1016.5
20260903042003 76 114 0.0 0.0 0.00 0.00 0.00 88 1016.6
20260903041003 77 66 0.0 0.0 0.00 0.00 0.00 88 1016.6
20260903040504 77 66 0.0 0.0 0.00 0.00 0.00 87 1016.6
20260903040003 77 66 0.0 0.0 0.00 0.00 0.00 87 1016.6
20260903035504 77 66 0.0 0.0 0.00 0.00 0.00 86 1016.5
20260903035005 77 66 0.0 0.0 0.00 0.00 0.00 86 1016.6
20260903034503 77 66 0.0 0.0 0.00 0.00 0.00 86 1016.7
20260903033504 78 11 0.0 0.0 0.00 0.00 0.00 85 1016.7
20260903032505 78 11 1.0 1.0 0.00 0.00 0.00 85 1016.7
20260903032003 78 292 0.0 1.0 0.00 0.00 0.00 84 1016.8
20260903031003 78 320 0.0 1.0 0.00 0.00 0.00 83 1016.8
20260903030503 78 3 0.0 1.0 0.00 0.00 0.00 83 1016.7
20260903030004 79 251 0.0 1.0 0.00 0.00 0.00 82 1016.7
20260903025503 79 247 0.0 1.0 0.00 0.00 0.00 82 1016.7
20260903025003 79 200 1.0 2.0 0.00 0.00 0.00 82 1016.9
20260903024504 79 266 0.0 0.0 0.00 0.00 0.00 81 1016.8
20260903024004 79 265 0.0 1.0 0.00 0.00 0.00 80 1016.9
20260903023003 80 173 0.0 1.0 0.00 0.00 0.00 80 1016.9
20260903022503 80 294 0.0 1.0 0.00 0.00 0.00 79 1016.9
20260903021503 80 93 0.0 0.0 0.00 0.00 0.00 78 1016.8
20260903021003 80 93 0.0 1.0 0.00 0.00 0.00 78 1016.9
20260903020503 81 67 0.0 1.0 0.00 0.00 0.00 78 1016.7
20260903020003 81 210 0.0 0.0 0.00 0.00 0.00 77 1016.6